Flag for U.S.A. Weather past 2 weeks in Portland, Oregon, U.S.A.

Now
54 °F

Light rain. More clouds than sun.


Feels Like: 49 °F
Forecast: 46 / 54 °F
Wind: 17 mph from South

Location: Portland International Airport


UV Index: 0 (Low)

Visibility: 10 mi


Pressure: 29.88 "Hg

Humidity: 83%

Dew point: 49 °F

Location of PortlandLocation

Historic Weather in Portland

°F

Portland temperature yesterday

Maximum temperature yesterday: 54 °F (at 2:53 PM)
Minimum temperature yesterday: 45 °F (at 6:53 AM)
Average temperature yesterday: 49 °F

Past Weeks' High & Low Weather Summary

 TemperatureHumidityPressure
High72 °F (Apr 14, 3:53 PM)97% (Apr 18, 4:53 AM)30.30 "Hg (Apr 18, 4:53 AM)
Low40 °F (Apr 13, 6:53 AM)21% (Apr 13, 3:53 PM)29.85 "Hg (Apr 17, 4:53 PM)
Average53 °F68%30.09 "Hg
* Reported Apr 8 2:53 PM — Apr 23 2:53 PM, Portland, Weather by CustomWeather, © 2014

Note: Actual official high and low records may vary slightly from our data, if they occured in-between our weather recording intervals... More about our weather records

Advertising

Historic Weather Conditions — Data for Previous 24 hours

 ConditionsComfort  
Time TempWeatherWind HumidityBarometerVisibility
2:53 PM
Apr 23
54 °FLight rain. More clouds than sun.17 mph80%29.90 "Hg10 mi
1:53 PM54 °FLight rain. Cloudy.14 mph77%29.91 "Hg10 mi
12:53 PM54 °FMostly cloudy.20 mph72%29.92 "Hg10 mi
11:53 AM53 °FMostly cloudy.14 mph74%29.93 "Hg10 mi
10:53 AM52 °FLight rain. Mostly cloudy.21 mph77%29.93 "Hg10 mi
9:53 AM49 °FLight rain. Mostly cloudy.12 mph86%29.94 "Hg10 mi
8:53 AM47 °FLight rain. Overcast.8 mph90%29.95 "Hg10 mi
7:53 AM46 °FLight rain. Mostly cloudy.10 mph93%29.96 "Hg7 mi
6:53 AM46 °FLight rain. Mostly cloudy.8 mph89%29.97 "Hg8 mi
5:53 AM46 °FLight rain. Overcast.7 mph89%29.97 "Hg10 mi
4:53 AM46 °FOvercast.10 mph86%29.97 "Hg10 mi
3:53 AM46 °FLight rain. Mostly cloudy.14 mph86%29.96 "Hg10 mi
2:53 AM46 °FOvercast.12 mph86%29.96 "Hg10 mi
1:53 AM47 °FLight rain. Mostly cloudy.14 mph86%29.96 "Hg10 mi
12:53 AM47 °FOvercast.13 mph86%29.97 "Hg10 mi
11:53 PM
Apr 22
47 °FLight rain. Overcast.16 mph86%29.95 "Hg10 mi
10:53 PM47 °FLight rain. Mostly cloudy.12 mph90%29.95 "Hg10 mi
9:53 PM48 °FLight rain. Overcast.9 mph89%29.96 "Hg10 mi
9:03 PM48 °FLight rain. Mostly cloudy.7 mph89%29.96 "Hg9 mi
8:53 PM48 °FLight rain. Cloudy.6 mph89%29.96 "Hg8 mi
7:53 PM50 °FLight rain. More clouds than sun.9 mph74%29.95 "Hg8 mi
6:53 PM52 °FMostly cloudy.8 mph64%29.95 "Hg10 mi
5:53 PM50 °FLight rain. Mostly cloudy.6 mph83%29.96 "Hg10 mi
4:53 PM51 °FLight rain. Broken clouds.9 mph80%29.95 "Hg10 mi
Weather by CustomWeather, © 2014

See weather overview